GW0409 Weather Reports


Display with metric or nautical units.
time (UTC)temp
F
wind
direction
speed
MPH
gust
MPH
rain 1hr
in
rain 24hr
in
rain mn
in
humidity
%
barometer
mb
20260903015518 62 37 3.0 7.0 0.06 0.28 0.28 84 1000.4
20260903014520 63 21 2.0 5.0 0.12 0.28 0.28 82 1000.5
20260903013519 63 13 1.0 4.0 0.12 0.28 0.28 81 1000.4
20260903012519 63 22 1.0 4.0 0.12 0.28 0.28 84 1000.4
20260903011519 62 23 1.0 3.0 0.13 0.28 0.28 83 1000.3
20260903010517 62 71 3.0 5.0 0.28 0.28 0.28 83 1000.4
20260903005520 63 96 3.0 5.0 0.21 0.21 0.21 88 1000.7
20260903004519 67 134 1.0 3.0 0.15 0.15 0.15 80 1000.3
20260903003519 65 348 1.0 3.0 0.15 0.15 0.15 82 1000.2
20260903002520 66 152 1.0 3.0 0.15 0.15 0.15 83 1000.2
20260903001517 69 120 2.0 6.0 0.15 0.15 0.15 72 1000.2
20260903000517 69 132 1.0 4.0 0.00 0.00 0.00 61 1000.1
20260902235522 71 105 2.0 7.0 0.00 0.00 0.00 61 999.9
20260902234518 73 107 3.0 7.0 0.00 0.00 0.00 56 999.8
20260902233519 75 95 3.0 8.0 0.00 0.00 0.00 52 999.7
20260902232538 73 132 1.0 4.0 0.00 0.00 0.00 52 999.8
20260902231518 73 115 1.0 4.0 0.00 0.00 0.00 53 999.9
20260902230518 72 68 3.0 7.0 0.00 0.00 0.00 53 999.8
20260902225518 72 85 3.0 5.0 0.00 0.00 0.00 53 1000.0
20260902224539 73 80 2.0 6.0 0.00 0.00 0.00 51 1000.1
20260902223519 74 61 3.0 6.0 0.00 0.00 0.00 50 1000.1
20260902222541 73 339 1.0 3.0 0.00 0.00 0.00 50 1000.2
20260902221520 72 90 1.0 6.0 0.00 0.00 0.00 51 1000.3
20260902220517 70 92 3.0 5.0 0.00 0.00 0.00 53 1000.5
20260902215520 70 118 1.0 4.0 0.00 0.00 0.00 55 1000.5
20260902214520 70 137 2.0 6.0 0.00 0.00 0.00 55 1000.6
20260902213517 71 134 1.0 3.0 0.00 0.00 0.00 56 1000.6
20260902212517 72 109 1.0 4.0 0.00 0.00 0.00 51 1000.7
20260902211519 73 182 2.0 4.0 0.00 0.00 0.00 52 1000.7
20260902210517 74 115 1.0 4.0 0.00 0.00 0.00 51 1000.7
20260902205518 73 135 2.0 5.0 0.00 0.00 0.00 52 1000.8
20260902204518 72 180 1.0 3.0 0.00 0.00 0.00 54 1000.8
20260902203518 71 183 1.0 4.0 0.00 0.00 0.00 54 1001.0
20260902202539 70 94 2.0 6.0 0.00 0.00 0.00 57 1001.1
20260902201518 70 124 2.0 6.0 0.00 0.00 0.00 58 1001.1
20260902200540 69 80 3.0 6.0 0.00 0.00 0.00 57 1001.2
20260902195518 69 132 2.0 7.0 0.00 0.00 0.00 59 1001.3
20260902194539 68 70 2.0 6.0 0.00 0.00 0.00 57 1001.5
20260902193521 68 244 1.0 4.0 0.00 0.00 0.00 58 1001.6
20260902192519 67 60 2.0 5.0 0.00 0.00 0.00 62 1001.7
20260902191538 67 38 3.0 7.0 0.00 0.00 0.00 62 1001.9
20260902190519 67 109 1.0 3.0 0.00 0.00 0.00 63 1001.9
20260902185520 67 41 2.0 5.0 0.00 0.00 0.00 60 1001.9
20260902184520 67 70 1.0 4.0 0.00 0.00 0.00 61 1001.9
20260902183517 66 211 0.0 2.0 0.00 0.00 0.00 64 1002.2
20260902182519 65 220 0.0 2.0 0.00 0.00 0.00 70 1002.3
20260902181519 64 18 0.0 3.0 0.00 0.00 0.00 69 1002.4
20260902180521 64 243 1.0 4.0 0.00 0.00 0.00 67 1002.4
20260902175539 64 262 1.0 3.0 0.00 0.00 0.00 71 1002.6
20260902174538 63 24 0.0 3.0 0.00 0.00 0.00 71 1002.7
20260902173520 63 48 1.0 4.0 0.00 0.00 0.00 71 1002.7
20260902172518 62 46 1.0 3.0 0.00 0.00 0.00 75 1002.8
20260902171558 62 188 0.0 1.0 0.00 0.00 0.00 76 1002.8
20260902170539 62 53 3.0 4.0 0.00 0.00 0.00 74 1002.8
20260902165519 61 57 3.0 4.0 0.00 0.00 0.00 77 1002.8
20260902164519 60 49 2.0 4.0 0.00 0.00 0.00 78 1002.8
20260902163519 60 64 2.0 3.0 0.00 0.00 0.00 78 1002.8
20260902162540 59 41 2.0 3.0 0.00 0.00 0.00 79 1002.9
20260902161519 58 30 4.0 6.0 0.00 0.00 0.00 81 1002.9
20260902160519 58 21 4.0 7.0 0.00 0.00 0.00 83 1002.9
20260902155520 57 17 3.0 5.0 0.00 0.00 0.00 83 1002.9
20260902154522 56 19 4.0 6.0 0.00 0.00 0.00 85 1002.9
20260902153520 56 27 4.0 5.0 0.00 0.00 0.00 86 1002.9
20260902152520 55 29 4.0 6.0 0.00 0.00 0.00 88 1002.9
20260902151540 54 28 4.0 6.0 0.00 0.00 0.00 90 1002.9
20260902150520 54 25 4.0 7.0 0.00 0.00 0.00 91 1002.9
20260902145541 53 28 4.0 7.0 0.00 0.00 0.00 92 1002.8
20260902144521 53 31 4.0 6.0 0.00 0.00 0.00 92 1002.9
20260902143521 52 17 4.0 6.0 0.00 0.00 0.00 93 1002.9
20260902142521 52 25 3.0 7.0 0.00 0.00 0.00 92 1002.9
20260902141521 53 25 3.0 5.0 0.00 0.00 0.00 92 1002.8
20260902140521 53 22 3.0 5.0 0.00 0.00 0.00 91 1002.8
20260902135521 53 19 3.0 4.0 0.00 0.00 0.00 89 1002.6
20260902134523 53 25 3.0 5.0 0.00 0.00 0.00 89 1002.6
20260902133522 52 23 3.0 4.0 0.00 0.00 0.00 88 1002.6
20260902132523 53 25 2.0 4.0 0.00 0.00 0.00 87 1002.5
20260902131524 53 25 2.0 4.0 0.00 0.00 0.00 86 1002.4
20260902130543 53 31 3.0 5.0 0.00 0.00 0.00 84 1002.4
20260902125517 53 27 3.0 4.0 0.00 0.00 0.00 84 1002.5
20260902124518 53 33 2.0 4.0 0.00 0.00 0.00 82 1002.4
20260902123539 53 26 2.0 4.0 0.00 0.00 0.00 82 1002.4
20260902122518 53 16 1.0 4.0 0.00 0.00 0.00 84 1002.4
20260902121518 53 29 2.0 5.0 0.00 0.00 0.00 84 1002.4
20260902120518 53 26 2.0 4.0 0.00 0.00 0.00 84 1002.4
20260902115518 53 28 3.0 5.0 0.00 0.00 0.00 85 1002.4
20260902114518 53 22 2.0 5.0 0.00 0.00 0.00 85 1002.4
20260902113541 53 22 3.0 4.0 0.00 0.00 0.00 83 1002.3
20260902112519 54 22 2.0 4.0 0.00 0.00 0.00 81 1002.3
20260902111519 55 22 0.0 2.0 0.00 0.00 0.00 75 1002.2
20260902110519 55 0.0 0.0 0.00 0.00 0.00 74 1002.1
20260902105519 55 347 1.0 3.0 0.00 0.00 0.00 77 1002.1
20260902104519 55 20 3.0 4.0 0.00 0.00 0.00 79 1002.1
20260902103521 55 28 3.0 4.0 0.00 0.00 0.00 81 1002.2
20260902102540 55 36 2.0 3.0 0.00 0.00 0.00 80 1002.2
20260902101540 55 17 1.0 3.0 0.00 0.00 0.00 80 1002.1
20260902100520 55 6 2.0 4.0 0.00 0.00 0.00 80 1002.0
20260902095537 56 14 3.0 4.0 0.00 0.00 0.00 79 1002.0
20260902094539 55 13 1.0 3.0 0.00 0.00 0.00 80 1001.9
20260902093519 56 10 2.0 4.0 0.00 0.00 0.00 80 1001.8
20260902092517 56 18 2.0 5.0 0.00 0.00 0.00 79 1001.9
20260902091523 56 14 1.0 3.0 0.00 0.00 0.00 80 1001.8
20260902090518 56 12 1.0 4.0 0.00 0.00 0.00 78 1001.7
20260902085518 56 354 1.0 3.0 0.00 0.00 0.00 78 1001.8
20260902084518 57 2 1.0 4.0 0.00 0.00 0.00 77 1001.7
20260902083519 56 8 2.0 4.0 0.00 0.00 0.00 78 1001.7
20260902082519 56 8 3.0 3.0 0.00 0.00 0.00 79 1001.7
20260902081519 56 3 2.0 3.0 0.00 0.00 0.00 82 1001.7
20260902080521 56 7 2.0 3.0 0.00 0.00 0.00 83 1001.6
20260902075521 56 13 2.0 3.0 0.00 0.00 0.00 83 1001.5
20260902074516 55 358 0.0 2.0 0.00 0.00 0.00 85 1001.5
20260902073517 56 314 1.0 2.0 0.00 0.00 0.00 83 1001.5
20260902072521 56 310 1.0 3.0 0.00 0.00 0.00 81 1001.4
20260902071520 55 273 1.0 2.0 0.00 0.00 0.00 85 1001.4
20260902070520 55 253 0.0 2.0 0.00 0.00 0.00 90 1001.4
20260902065517 54 262 0.0 1.0 0.00 0.00 0.00 92 1001.3
20260902064519 55 274 0.0 1.0 0.00 0.00 0.00 93 1001.2
20260902063517 55 6 0.0 0.0 0.00 0.00 0.00 91 1001.1
20260902062521 56 346 0.0 2.0 0.00 0.00 0.00 92 1000.9
20260902061519 56 0 1.0 3.0 0.00 0.00 0.00 91 1000.8
20260902060518 57 321 0.0 2.0 0.00 0.00 0.00 92 1000.6
20260902055518 57 348 1.0 3.0 0.00 0.00 0.00 90 1000.4
20260902054542 58 0 1.0 4.0 0.00 0.00 0.00 89 1000.4
20260902053518 59 248 0.0 1.0 0.00 0.00 0.00 88 1000.2
20260902052520 60 7 0.0 2.0 0.00 0.00 0.00 87 1000.0
20260902051520 60 0.0 0.0 0.00 0.00 0.00 84 999.8
20260902050520 59 230 0.0 2.0 0.00 0.00 0.00 85 999.7
20260902045602 60 355 1.0 3.0 0.00 0.00 0.00 84 999.7
20260902044519 60 1 0.0 2.0 0.00 0.00 0.00 83 999.6
20260902043518 59 360 0.0 3.0 0.00 0.00 0.00 83 999.6
20260902042521 59 0.0 0.0 0.00 0.00 0.00 85 999.8
20260902041520 60 0.0 0.0 0.00 0.00 0.00 87 999.6
20260902040520 61 60 0.0 2.0 0.00 0.00 0.00 86 999.6
20260902035517 62 58 1.0 3.0 0.00 0.00 0.00 84 999.5
20260902034517 62 71 3.0 5.0 0.00 0.00 0.00 85 999.5
20260902033519 62 69 3.0 5.0 0.00 0.00 0.00 88 999.4
20260902032518 62 64 3.0 5.0 0.00 0.00 0.00 88 999.3
20260902031518 63 60 3.0 5.0 0.00 0.00 0.00 88 999.3
20260902030538 63 54 3.0 4.0 0.00 0.00 0.00 87 999.3
20260902025518 63 54 3.0 5.0 0.00 0.00 0.00 88 999.5
20260902024519 63 59 3.0 4.0 0.00 0.00 0.00 88 999.5
20260902023520 63 63 3.0 4.0 0.00 0.00 0.00 89 999.6
20260902022519 63 73 1.0 4.0 0.00 0.00 0.00 90 999.7
20260902021539 63 53 1.0 4.0 0.00 0.00 0.00 89 999.7
20260902020521 64 48 2.0 5.0 0.00 0.00 0.00 87 999.8